Waarnemingen

Advertentie
Mijn weer
Chassiron, Frankrijk (7314): temperatuur & dauwpunt: 16.01.2018 21:00:00 - 22.01.2018 21:00:00 (CET)Chassiron, Frankrijk (7314): windsnelheid & windstoten: 16.01.2018 21:00:00 - 22.01.2018 21:00:00 (CET)Chassiron, Frankrijk (7314): windrichting: 16.01.2018 21:00:00 - 22.01.2018 21:00:00 (CET)Chassiron, Frankrijk (7314): luchtdruk: 16.01.2018 21:00:00 - 22.01.2018 21:00:00 (CET)Chassiron, Frankrijk (7314): zicht: 16.01.2018 21:00:00 - 22.01.2018 21:00:00 (CET)Chassiron, Frankrijk (7314): neerslag: 16.01.2018 21:00:00 - 22.01.2018 21:00:00 (CET)
Datum & Tijd tt [°C] td [°C] ff [km/u] ff [kn] fx [km/u] fx [kn] dd ppp [hPa] vv [km] rr [mm]
22.01.2018 21:00:00 - - - - - - - - - -
22.01.2018 20:00:00 11,0 9,6 17 9 24 13 W 1026,7 - 0,0
22.01.2018 19:00:00 11,1 9,4 22 12 35 19 W 1025,9 - 0,0
22.01.2018 18:00:00 11,2 9,5 22 12 37 20 WNW 1025,2 - 0,0
22.01.2018 17:00:00 11,7 9,6 25 13 41 22 WNW 1024,7 - 0,0
22.01.2018 16:00:00 11,9 9,6 28 15 46 25 WNW 1023,6 16 0,0
22.01.2018 15:00:00 12,0 9,7 28 15 64 34 WNW 1022,9 - 0,0
22.01.2018 14:00:00 12,2 9,4 39 21 61 33 WNW 1022,1 - 0,0
22.01.2018 13:00:00 12,6 10,8 45 24 66 36 W 1021,5 8 0,0
22.01.2018 12:00:00 12,7 11,8 43 23 61 33 W 1021,3 - 0,2
22.01.2018 11:00:00 12,2 11,9 38 21 66 36 W 1021,1 - 0,8
22.01.2018 10:00:00 12,2 11,7 46 25 67 36 WZW 1020,2 - 0,0
22.01.2018 09:00:00 12,1 11,6 45 24 60 32 WZW 1020,3 3,0 0,2
22.01.2018 08:00:00 12,0 11,4 36 19 50 27 WZW 1020,8 - 0,2
22.01.2018 07:00:00 11,9 11,1 32 17 50 27 WZW 1021,2 8 0,2
22.01.2018 06:00:00 12,3 11,2 41 22 58 32 WZW 1021,7 - 0,0
22.01.2018 05:00:00 11,9 11,1 39 21 61 33 WZW 1021,9 - 0,0
22.01.2018 04:00:00 12,2 11,1 38 20 49 26 WZW 1021,9 - 0,0
22.01.2018 03:00:00 12,1 11,2 41 22 55 30 WZW 1022,0 - 0,0
22.01.2018 02:00:00 12,1 11,2 36 20 53 28 WZW 1022,4 - 0,0
22.01.2018 01:00:00 12,1 11,2 37 20 54 29 WZW 1022,5 - 0,0
22.01.2018 00:00:00 12,2 11,3 39 21 52 28 WZW 1022,6 - 0,0
21.01.2018 23:00:00 11,8 11,3 35 19 51 27 WZW 1022,9 - 0,0
21.01.2018 22:00:00 11,8 11,2 34 18 47 25 WZW 1023,2 - 0,4
21.01.2018 21:00:00 12,0 11,2 32 17 46 25 WZW 1023,3 - 0,0
21.01.2018 20:00:00 12,1 11,2 34 19 51 27 W 1023,0 - 0,0
21.01.2018 19:00:00 11,9 11,3 34 19 45 24 W 1023,0 8 0,0
21.01.2018 18:00:00 11,8 11,3 31 17 44 24 W 1023,0 - 0,0
21.01.2018 17:00:00 11,6 11,3 31 17 49 27 W 1022,8 - 0,0
21.01.2018 16:00:00 11,9 11,6 35 19 44 24 W 1022,9 - 0,0
21.01.2018 15:00:00 11,7 11,5 32 17 48 26 W 1022,7 - 0,0
21.01.2018 14:00:00 11,7 11,4 32 17 45 24 W 1022,9 - 0,0
21.01.2018 13:00:00 11,9 11,6 29 16 50 27 W 1023,0 - 0,2
21.01.2018 12:00:00 11,8 11,5 29 16 44 24 W 1023,3 - 0,0
21.01.2018 11:00:00 11,8 11,6 33 18 47 26 W 1022,6 - 0,0
21.01.2018 10:00:00 11,6 11,4 30 16 52 28 WNW 1022,0 - 0,0
21.01.2018 09:00:00 11,7 11,5 32 17 49 26 WNW 1021,4 - 0,0
21.01.2018 08:00:00 11,8 11,5 35 19 50 27 WNW 1020,7 - 0,4
21.01.2018 07:00:00 11,8 11,6 37 20 53 29 W 1020,4 3,0 0,2
21.01.2018 06:00:00 11,8 11,6 37 20 51 27 W 1019,9 - 0,4
21.01.2018 05:00:00 11,8 11,6 39 21 51 28 W 1019,7 - 0,8
21.01.2018 04:00:00 11,8 11,5 35 19 49 26 W 1019,7 - 0,4
21.01.2018 03:00:00 11,8 11,5 36 20 49 26 W 1019,6 1,0 0,4
21.01.2018 02:00:00 11,8 11,5 35 19 48 26 W 1019,2 - 0,0
21.01.2018 01:00:00 11,8 11,5 34 19 55 30 W 1018,7 6 0,0
21.01.2018 00:00:00 11,9 11,6 43 23 60 33 W 1017,9 - 0,0
20.01.2018 23:00:00 12,0 11,7 43 23 59 32 W 1017,1 - 0,2
20.01.2018 22:00:00 12,0 11,5 43 23 60 32 W 1016,3 - 0,2
20.01.2018 21:00:00 12,0 11,5 45 24 63 34 W 1015,9 - 0,0
20.01.2018 20:00:00 12,0 11,5 44 24 61 33 W 1015,2 - 0,0
20.01.2018 19:00:00 12,0 11,5 45 24 67 36 W 1014,6 3,0 0,0
20.01.2018 18:00:00 12,2 11,7 50 27 70 38 W 1013,8 - 0,0
20.01.2018 17:00:00 12,1 11,6 46 25 67 36 W 1013,3 - 0,0
20.01.2018 16:00:00 12,2 11,7 51 28 72 39 W 1012,6 - 0,0
20.01.2018 15:00:00 12,2 11,7 51 28 77 41 W 1012,1 - 0,2
20.01.2018 14:00:00 12,3 11,8 54 29 77 42 W 1011,8 - 0,0
20.01.2018 13:00:00 12,3 11,8 56 30 79 43 W 1011,7 2,0 0,6
20.01.2018 12:00:00 12,3 11,7 56 30 81 44 W 1011,9 - 0,2
20.01.2018 11:00:00 12,1 11,5 58 31 84 45 W 1011,5 - 0,2
20.01.2018 10:00:00 12,0 11,2 60 32 84 45 WZW 1011,2 - 1,2
20.01.2018 09:00:00 11,7 10,9 58 31 90 48 WZW 1011,2 - 1,6
20.01.2018 08:00:00 11,4 10,5 55 30 80 43 WZW 1011,8 - 4,0
20.01.2018 07:00:00 10,7 9,9 45 24 63 34 ZW 1013,1 - 3,9
20.01.2018 06:00:00 10,4 9,2 39 21 58 31 ZW 1015,1 - 2,2
20.01.2018 05:00:00 10,8 8,4 39 21 54 29 ZW 1016,4 - 0,4
20.01.2018 04:00:00 11,0 8,6 32 17 49 26 ZW 1018,2 8 0,0
20.01.2018 03:00:00 10,9 8,1 32 17 46 25 ZW 1019,3 - 0,2
20.01.2018 02:00:00 10,7 6,8 30 16 40 22 WZW 1020,5 - 0,0
20.01.2018 01:00:00 10,4 6,3 26 14 41 22 WZW 1021,2 14 0,0
20.01.2018 00:00:00 10,1 5,9 29 16 40 22 W 1021,6 - 0,0
19.01.2018 23:00:00 9,9 6,8 24 13 38 21 W 1022,0 - 0,0
19.01.2018 22:00:00 8,8 5,7 35 19 61 33 WNW 1021,9 10 0,2
19.01.2018 21:00:00 10,1 5,9 31 17 46 25 W 1021,2 - 0,0
19.01.2018 20:00:00 9,7 5,9 23 12 38 20 WNW 1021,1 - 0,0
19.01.2018 19:00:00 8,8 5,2 24 13 70 38 NW 1020,9 5 0,4
19.01.2018 18:00:00 9,7 6,0 27 15 49 26 WNW 1020,5 - 0,4
19.01.2018 17:00:00 10,0 6,2 26 14 34 18 WNW 1020,1 - 0,0
19.01.2018 16:00:00 10,5 6,6 21 11 30 16 WNW 1019,4 18 0,0
19.01.2018 15:00:00 10,3 6,6 22 12 44 24 W 1019,1 - 0,0
19.01.2018 14:00:00 9,6 6,5 35 19 64 35 NW 1019,5 - 0,4
19.01.2018 13:00:00 11,1 8,0 26 14 33 18 W 1019,2 18 0,0
19.01.2018 12:00:00 9,8 6,9 19 10 59 32 W 1019,7 - 0,4
19.01.2018 11:00:00 10,9 6,8 26 14 34 19 W 1019,6 - 0,0
19.01.2018 10:00:00 10,4 7,1 27 15 44 24 W 1019,1 - 0,0
19.01.2018 09:00:00 10,1 8,0 14 8 19 11 W 1018,9 - 0,0
19.01.2018 08:00:00 9,7 7,1 11 6 27 15 WNW 1018,6 - 0,0
19.01.2018 07:00:00 9,6 7,0 18 10 40 22 WNW 1018,5 10 0,2
19.01.2018 06:00:00 9,6 7,0 16 9 39 21 NW 1018,4 - 0,4
19.01.2018 05:00:00 9,3 7,2 19 10 37 20 NNW 1018,3 - 1,2
19.01.2018 04:00:00 10,8 8,4 24 13 42 23 WNW 1018,1 13 0,0
19.01.2018 03:00:00 11,0 8,0 31 17 45 24 WNW 1018,0 - 0,0
19.01.2018 02:00:00 11,0 8,6 26 14 34 18 W 1017,9 - 0,0
19.01.2018 01:00:00 11,1 8,7 23 12 31 17 WZW 1017,9 13 0,0
19.01.2018 00:00:00 11,0 8,7 22 12 36 19 W 1018,1 - 0,0
18.01.2018 23:00:00 11,2 8,6 26 14 42 23 W 1018,0 - 0,0
18.01.2018 22:00:00 11,4 8,4 29 16 50 27 WNW 1017,6 10 0,0
18.01.2018 21:00:00 11,5 9,9 29 16 55 30 W 1017,3 - 0,0
18.01.2018 20:00:00 11,7 11,1 39 21 58 32 W 1016,8 - 0,4
18.01.2018 19:00:00 11,8 11,3 38 20 53 28 WZW 1016,4 - 0,2
18.01.2018 18:00:00 11,8 11,2 36 19 61 33 WZW 1016,4 - 0,0
18.01.2018 17:00:00 11,8 11,3 43 23 62 33 WZW 1016,1 - 0,0
18.01.2018 16:00:00 11,8 10,9 44 24 61 33 WZW 1016,0 4,0 0,2
18.01.2018 15:00:00 12,0 10,6 48 26 64 35 WZW 1016,3 - 0,0
18.01.2018 14:00:00 12,0 10,4 45 25 63 34 WZW 1016,9 - 0,0
18.01.2018 13:00:00 12,1 10,3 44 24 62 34 WZW 1017,5 8 0,0
18.01.2018 12:00:00 11,9 10,3 39 21 61 33 ZW 1018,1 - 0,0
18.01.2018 11:00:00 11,8 10,0 38 21 59 32 ZW 1018,4 - 0,0
18.01.2018 10:00:00 11,6 10,0 40 22 56 30 WZW 1018,7 6 0,0
18.01.2018 09:00:00 11,4 9,8 39 21 57 31 WZW 1018,5 - 0,0
18.01.2018 08:00:00 11,2 9,8 42 23 62 33 WZW 1018,3 - 0,0
18.01.2018 07:00:00 11,5 9,4 47 25 65 35 WZW 1018,5 8 0,0
18.01.2018 06:00:00 11,0 9,4 40 21 64 35 WZW 1019,3 - 0,0
18.01.2018 05:00:00 11,3 8,7 48 26 69 37 WZW 1019,6 - 0,0
18.01.2018 04:00:00 11,0 8,4 41 22 74 40 WZW 1020,1 8 0,2
18.01.2018 03:00:00 10,9 8,8 41 22 65 35 WZW 1020,8 6 0,0
18.01.2018 02:00:00 10,9 7,9 41 22 61 33 W 1021,2 - 0,0
18.01.2018 01:00:00 11,2 7,7 37 20 53 29 WZW 1021,9 8 0,0
18.01.2018 00:00:00 11,1 7,6 39 21 68 37 WZW 1022,2 - 0,0
17.01.2018 23:00:00 11,0 7,5 36 19 53 28 W 1023,0 - 0,0
17.01.2018 22:00:00 11,0 7,1 36 19 49 26 W 1023,1 - 0,0
17.01.2018 21:00:00 10,8 7,1 29 16 46 25 W 1023,5 - 0,0
17.01.2018 20:00:00 10,5 6,8 35 19 47 25 W 1023,7 - 0,0
17.01.2018 19:00:00 10,1 6,4 31 17 49 27 W 1023,8 10 0,2
17.01.2018 18:00:00 10,4 6,3 33 18 45 24 W 1024,0 - 0,0
17.01.2018 17:00:00 10,4 6,5 33 18 49 27 W 1024,3 - 0,0
17.01.2018 16:00:00 10,5 5,9 31 17 49 26 W 1024,1 12 0,0
17.01.2018 15:00:00 10,7 6,6 32 18 48 26 W 1023,6 - 0,0
17.01.2018 14:00:00 10,4 5,6 31 17 48 26 WNW 1024,0 - 0,0
17.01.2018 13:00:00 9,8 6,1 26 14 66 35 WNW 1024,5 12 0,2
17.01.2018 12:00:00 10,3 4,6 32 17 58 32 WNW 1024,1 - 0,0
17.01.2018 11:00:00 10,0 4,6 39 21 73 39 WNW 1023,2 - 0,0
17.01.2018 10:00:00 8,5 4,9 39 21 74 40 NW 1022,5 8 0,0
17.01.2018 09:00:00 10,0 5,6 39 21 64 34 WNW 1021,0 - 0,0
17.01.2018 08:00:00 9,1 5,3 44 24 91 49 WNW 1020,1 - 0,0
17.01.2018 07:00:00 9,0 5,0 53 29 81 44 NW 1019,0 6 0,0
17.01.2018 06:00:00 8,3 5,2 49 26 80 43 WNW 1018,3 - 0,4
17.01.2018 05:00:00 8,7 5,4 51 28 78 42 WNW 1017,6 - 0,4
17.01.2018 04:00:00 9,0 5,0 51 28 82 44 WNW 1016,8 5 0,0
17.01.2018 03:00:00 9,8 6,0 56 30 111 60 WNW 1016,2 - 0,8
17.01.2018 02:00:00 9,9 6,4 51 28 79 43 WNW 1015,0 - 1,4
17.01.2018 01:00:00 10,5 6,3 55 30 89 48 WNW 1014,7 8 0,4
17.01.2018 00:00:00 11,0 6,1 58 32 84 45 W 1013,5 - 0,0
16.01.2018 23:00:00 11,1 7,0 47 26 74 40 W 1013,5 - 0,0
16.01.2018 22:00:00 11,5 7,2 48 26 72 39 W 1013,3 8 0,0
16.01.2018 21:00:00 10,8 8,2 47 26 77 41 W 1013,1 - 0,4

tt = temperatuur
td = dauwpunt
ff = windsnelheid
fx = windstoten
dd = windrichting
ppp = luchtdruk
vv = zicht
rr = neerslag

Weerstations in de omgeving